| time (UTC) | temp C | wind direction | speed KPH | gust KPH | rain 1hr cm | rain 24hr cm | rain mn cm | humidity % | barometer mb |
| 20260906210558 | 30 | 149 | 6.4 | 12.9 | 0.00 | 0.00 | 0.00 | 55 | 1011.1 |
| 20260906210053 | 30 | 169 | 11.3 | 12.9 | 0.00 | 0.00 | 0.00 | 54 | 1011.7 |
| 20260906205549 | 30 | 68 | 9.7 | 12.9 | 0.00 | 0.00 | 0.00 | 54 | 1011.6 |
| 20260906205045 | 30 | 110 | 11.3 | 11.3 | 0.00 | 0.00 | 0.00 | 55 | 1011.7 |
| 20260906204544 | 30 | 143 | 14.5 | 16.1 | 0.00 | 0.00 | 0.00 | 56 | 1011.7 |
| 20260906204039 | 30 | 114 | 16.1 | 20.9 | 0.00 | 0.00 | 0.00 | 55 | 1011.9 |
| 20260906203538 | 29 | 115 | 12.9 | 20.9 | 0.00 | 0.00 | 0.00 | 57 | 1011.9 |
| 20260906203033 | 30 | 154 | 9.7 | 17.7 | 0.00 | 0.00 | 0.00 | 55 | 1012.1 |
| 20260906202530 | 30 | 154 | 12.9 | 17.7 | 0.00 | 0.00 | 0.00 | 55 | 1012.2 |
| 20260906202025 | 29 | 185 | 11.3 | 19.3 | 0.00 | 0.00 | 0.00 | 56 | 1012.1 |
| 20260906201525 | 30 | 180 | 14.5 | 17.7 | 0.00 | 0.00 | 0.00 | 56 | 1012.1 |
| 20260906201024 | 29 | 149 | 16.1 | 25.7 | 0.00 | 0.00 | 0.00 | 57 | 1012.4 |
| 20260906200520 | 29 | 166 | 4.8 | 24.1 | 0.00 | 0.00 | 0.00 | 57 | 1012.2 |
| 20260906200016 | 30 | 186 | 12.9 | 17.7 | 0.00 | 0.00 | 0.00 | 56 | 1012.2 |
| 20260906195511 | 28 | 146 | 11.3 | 20.9 | 0.00 | 0.00 | 0.00 | 59 | 1012.5 |
| 20260906195008 | 28 | 135 | 12.9 | 20.9 | 0.00 | 0.00 | 0.00 | 59 | 1012.5 |
| 20260906194503 | 28 | 197 | 9.7 | 20.9 | 0.00 | 0.00 | 0.00 | 58 | 1012.4 |
| 20260906193959 | 28 | 124 | 12.9 | 17.7 | 0.00 | 0.00 | 0.00 | 59 | 1012.6 |
| 20260906193458 | 28 | 156 | 14.5 | 19.3 | 0.00 | 0.00 | 0.00 | 60 | 1012.7 |
| 20260906192954 | 28 | 207 | 9.7 | 20.9 | 0.00 | 0.00 | 0.00 | 59 | 1012.8 |
| 20260906192449 | 28 | 167 | 11.3 | 22.5 | 0.00 | 0.00 | 0.00 | 56 | 1012.8 |
| 20260906191948 | 28 | 163 | 11.3 | 20.9 | 0.00 | 0.00 | 0.00 | 57 | 1013.1 |
| 20260906191443 | 28 | 185 | 11.3 | 17.7 | 0.00 | 0.00 | 0.00 | 57 | 1012.9 |
| 20260906190942 | 28 | 161 | 8.0 | 17.7 | 0.00 | 0.00 | 0.00 | 57 | 1013.0 |
| 20260906190441 | 28 | 198 | 11.3 | 17.7 | 0.00 | 0.00 | 0.00 | 57 | 1012.9 |
| 20260906185936 | 28 | 154 | 8.0 | 9.7 | 0.00 | 0.00 | 0.00 | 58 | 1013.3 |
| 20260906185436 | 27 | 145 | 14.5 | 20.9 | 0.00 | 0.00 | 0.00 | 64 | 1013.1 |
| 20260906184935 | 28 | 146 | 8.0 | 17.7 | 0.00 | 0.00 | 0.00 | 61 | 1013.3 |
| 20260906184430 | 27 | 135 | 14.5 | 20.9 | 0.00 | 0.00 | 0.00 | 64 | 1013.4 |
| 20260906183925 | 28 | 147 | 11.3 | 16.1 | 0.00 | 0.00 | 0.00 | 61 | 1013.6 |
| 20260906183421 | 27 | 180 | 11.3 | 17.7 | 0.00 | 0.00 | 0.00 | 62 | 1013.5 |
| 20260906182916 | 27 | 211 | 14.5 | 17.7 | 0.00 | 0.00 | 0.00 | 62 | 1013.9 |
| 20260906182412 | 27 | 147 | 14.5 | 24.1 | 0.00 | 0.00 | 0.00 | 63 | 1014.0 |
| 20260906181907 | 26 | 166 | 17.7 | 22.5 | 0.00 | 0.00 | 0.00 | 64 | 1013.9 |
| 20260906181403 | 27 | 182 | 12.9 | 20.9 | 0.00 | 0.00 | 0.00 | 64 | 1014.0 |
| 20260906180859 | 27 | 163 | 16.1 | 24.1 | 0.00 | 0.00 | 0.00 | 64 | 1014.3 |
| 20260906180353 | 26 | 146 | 16.1 | 24.1 | 0.00 | 0.00 | 0.00 | 68 | 1014.3 |
| 20260906175851 | 26 | 170 | 8.0 | 25.7 | 0.00 | 0.00 | 0.00 | 65 | 1014.4 |
| 20260906175346 | 27 | 159 | 17.7 | 25.7 | 0.00 | 0.00 | 0.00 | 63 | 1014.6 |
| 20260906174845 | 26 | 151 | 22.5 | 24.1 | 0.00 | 0.00 | 0.00 | 64 | 1014.7 |
| 20260906174344 | 26 | 167 | 12.9 | 22.5 | 0.00 | 0.00 | 0.00 | 67 | 1014.5 |
| 20260906173839 | 26 | 191 | 17.7 | 24.1 | 0.00 | 0.00 | 0.00 | 65 | 1014.8 |
| 20260906173335 | 26 | 192 | 11.3 | 17.7 | 0.00 | 0.00 | 0.00 | 65 | 1014.8 |
| 20260906172834 | 26 | 147 | 9.7 | 17.7 | 0.00 | 0.00 | 0.00 | 66 | 1014.8 |
| 20260906172330 | 25 | 175 | 11.3 | 25.7 | 0.00 | 0.00 | 0.00 | 68 | 1014.8 |
| 20260906171825 | 26 | 174 | 16.1 | 22.5 | 0.00 | 0.00 | 0.00 | 67 | 1014.8 |
| 20260906171320 | 26 | 178 | 11.3 | 20.9 | 0.00 | 0.00 | 0.00 | 67 | 1014.7 |
| 20260906170816 | 25 | 169 | 17.7 | 22.5 | 0.00 | 0.00 | 0.00 | 67 | 1014.8 |
| 20260906170312 | 26 | 173 | 19.3 | 22.5 | 0.00 | 0.00 | 0.00 | 66 | 1015.0 |
| 20260906165808 | 26 | 160 | 17.7 | 20.9 | 0.00 | 0.00 | 0.00 | 66 | 1014.8 |
| 20260906165306 | 25 | 149 | 19.3 | 22.5 | 0.00 | 0.00 | 0.00 | 66 | 1015.0 |
| 20260906164801 | 25 | 159 | 12.9 | 20.9 | 0.00 | 0.00 | 0.00 | 68 | 1014.7 |
| 20260906164256 | 25 | 159 | 11.3 | 20.9 | 0.00 | 0.00 | 0.00 | 69 | 1014.8 |
| 20260906163752 | 25 | 149 | 11.3 | 17.7 | 0.00 | 0.00 | 0.00 | 68 | 1014.8 |
| 20260906163248 | 24 | 186 | 8.0 | 17.7 | 0.00 | 0.00 | 0.00 | 69 | 1015.0 |
| 20260906162745 | 25 | 153 | 11.3 | 16.1 | 0.00 | 0.00 | 0.00 | 70 | 1015.3 |
| 20260906162240 | 24 | 153 | 12.9 | 20.9 | 0.00 | 0.00 | 0.00 | 70 | 1015.2 |
| 20260906161740 | 24 | 148 | 11.3 | 16.1 | 0.00 | 0.00 | 0.00 | 70 | 1015.0 |
| 20260906161239 | 24 | 196 | 11.3 | 17.7 | 0.00 | 0.00 | 0.00 | 69 | 1015.3 |
| 20260906160738 | 24 | 156 | 6.4 | 14.5 | 0.00 | 0.00 | 0.00 | 70 | 1015.4 |
| 20260906160238 | 23 | 162 | 11.3 | 14.5 | 0.00 | 0.00 | 0.00 | 71 | 1015.4 |
| 20260906155735 | 23 | 180 | 14.5 | 14.5 | 0.00 | 0.00 | 0.00 | 69 | 1015.5 |
| 20260906155230 | 23 | 128 | 4.8 | 8.0 | 0.00 | 0.00 | 0.00 | 71 | 1015.3 |
| 20260906154726 | 23 | 165 | 8.0 | 9.7 | 0.00 | 0.00 | 0.00 | 72 | 1015.4 |
| 20260906154221 | 22 | 180 | 8.0 | 14.5 | 0.00 | 0.00 | 0.00 | 75 | 1015.4 |
| 20260906153719 | 22 | 182 | 11.3 | 14.5 | 0.00 | 0.00 | 0.00 | 75 | 1015.2 |
| 20260906153214 | 22 | 148 | 11.3 | 14.5 | 0.00 | 0.00 | 0.00 | 76 | 1015.3 |
| 20260906152709 | 20 | 190 | 6.4 | 14.5 | 0.00 | 0.00 | 0.00 | 79 | 1015.5 |
| 20260906152203 | 20 | 198 | 4.8 | 9.7 | 0.00 | 0.00 | 0.00 | 79 | 1015.6 |
| 20260906151657 | 20 | 192 | 3.2 | 8.0 | 0.00 | 0.00 | 0.00 | 79 | 1015.3 |
| 20260906151153 | 20 | 189 | 6.4 | 9.7 | 0.00 | 0.00 | 0.00 | 78 | 1015.3 |
| 20260906150649 | 20 | 175 | 4.8 | 4.8 | 0.00 | 0.00 | 0.00 | 79 | 1015.5 |
| 20260906150144 | 20 | 197 | 0.0 | 6.4 | 0.00 | 0.00 | 0.00 | 77 | 1015.5 |
| 20260906145643 | 21 | 130 | 8.0 | 8.0 | 0.00 | 0.00 | 0.00 | 76 | 1015.5 |
| 20260906145137 | 21 | 245 | 0.0 | 6.4 | 0.00 | 0.00 | 0.00 | 76 | 1015.4 |
| 20260906144632 | 21 | 142 | 8.0 | 8.0 | 0.00 | 0.00 | 0.00 | 74 | 1015.5 |
| 20260906144127 | 21 | 123 | 3.2 | 6.4 | 0.00 | 0.00 | 0.00 | 76 | 1015.4 |
| 20260906143626 | 20 | 146 | 0.0 | 4.8 | 0.00 | 0.00 | 0.00 | 80 | 1015.7 |
| 20260906143124 | 20 | 166 | 0.0 | 4.8 | 0.00 | 0.00 | 0.00 | 82 | 1015.5 |
| 20260906142622 | 19 | 203 | 3.2 | 4.8 | 0.00 | 0.00 | 0.00 | 82 | 1015.7 |
| 20260906142118 | 20 | 139 | 1.6 | 4.8 | 0.00 | 0.00 | 0.00 | 81 | 1016.0 |
| 20260906141617 | 20 | 210 | 4.8 | 8.0 | 0.00 | 0.00 | 0.00 | 81 | 1015.9 |
| 20260906141113 | 19 | 243 | 1.6 | 4.8 | 0.00 | 0.00 | 0.00 | 82 | 1015.7 |
| 20260906140611 | 18 | 126 | 3.2 | 4.8 | 0.00 | 0.00 | 0.00 | 83 | 1016.0 |
| 20260906140106 | 19 | 141 | 3.2 | 4.8 | 0.00 | 0.00 | 0.00 | 84 | 1016.0 |
| 20260906135603 | 18 | 104 | 3.2 | 3.2 | 0.00 | 0.00 | 0.00 | 86 | 1015.7 |
| 20260906135059 | 18 | 86 | 6.4 | 6.4 | 0.00 | 0.00 | 0.00 | 86 | 1015.6 |
| 20260906134555 | 18 | 120 | 6.4 | 6.4 | 0.00 | 0.00 | 0.00 | 85 | 1015.7 |
| 20260906134055 | 18 | 98 | 4.8 | 6.4 | 0.00 | 0.00 | 0.00 | 86 | 1015.7 |
| 20260906133550 | 18 | 99 | 6.4 | 8.0 | 0.00 | 0.00 | 0.00 | 86 | 1015.6 |
| 20260906133046 | 18 | 52 | 4.8 | 4.8 | 0.00 | 0.00 | 0.00 | 86 | 1015.7 |
| 20260906132541 | 18 | 123 | 0.0 | 6.4 | 0.00 | 0.00 | 0.00 | 86 | 1015.7 |
| 20260906132036 | 18 | 116 | 6.4 | 11.3 | 0.00 | 0.00 | 0.00 | 85 | 1015.6 |
| 20260906131531 | 18 | 108 | 6.4 | 6.4 | 0.00 | 0.00 | 0.00 | 84 | 1015.9 |
| 20260906131027 | 19 | 108 | 3.2 | 3.2 | 0.00 | 0.00 | 0.00 | 82 | 1015.7 |
| 20260906130526 | 18 | 75 | 1.6 | 4.8 | 0.00 | 0.00 | 0.00 | 84 | 1015.9 |
| 20260906130021 | 18 | 126 | 4.8 | 6.4 | 0.00 | 0.00 | 0.00 | 87 | 1016.0 |
| 20260906125519 | 17 | 131 | 8.0 | 9.7 | 0.00 | 0.00 | 0.00 | 87 | 1015.7 |
| 20260906125013 | 17 | 113 | 4.8 | 6.4 | 0.00 | 0.00 | 0.00 | 89 | 1015.6 |
| 20260906124509 | 17 | 94 | 8.0 | 9.7 | 0.00 | 0.00 | 0.00 | 90 | 1015.3 |
| 20260906124003 | 17 | 104 | 8.0 | 9.7 | 0.00 | 0.00 | 0.00 | 89 | 1015.9 |
| 20260906123457 | 17 | 98 | 8.0 | 9.7 | 0.00 | 0.00 | 0.00 | 90 | 1015.6 |
| 20260906122957 | 17 | 119 | 12.9 | 16.1 | 0.00 | 0.00 | 0.00 | 90 | 1015.3 |
| 20260906122452 | 17 | 127 | 12.9 | 14.5 | 0.00 | 0.00 | 0.00 | 90 | 1015.6 |
| 20260906121948 | 16 | 107 | 3.2 | 8.0 | 0.00 | 0.00 | 0.00 | 90 | 1015.2 |
| 20260906121444 | 17 | 121 | 8.0 | 9.7 | 0.00 | 0.00 | 0.00 | 90 | 1015.0 |
| 20260906120940 | 17 | 105 | 9.7 | 9.7 | 0.00 | 0.00 | 0.00 | 89 | 1015.1 |
| 20260906120435 | 17 | 114 | 3.2 | 4.8 | 0.00 | 0.00 | 0.00 | 89 | 1015.5 |
| 20260906115932 | 17 | 140 | 4.8 | 6.4 | 0.00 | 0.00 | 0.00 | 89 | 1015.4 |
| 20260906115427 | 17 | 36 | 4.8 | 8.0 | 0.00 | 0.00 | 0.00 | 89 | 1015.6 |
| 20260906114926 | 17 | 111 | 3.2 | 6.4 | 0.00 | 0.00 | 0.00 | 89 | 1015.2 |
| 20260906114421 | 17 | 172 | 6.4 | 8.0 | 0.00 | 0.00 | 0.00 | 90 | 1015.1 |
| 20260906113917 | 16 | 218 | 1.6 | 3.2 | 0.00 | 0.00 | 0.00 | 90 | 1015.3 |
| 20260906113415 | 17 | 99 | 3.2 | 4.8 | 0.00 | 0.00 | 0.00 | 90 | 1014.8 |
| 20260906112912 | 17 | 113 | 8.0 | 11.3 | 0.00 | 0.00 | 0.00 | 90 | 1014.8 |
| 20260906112407 | 16 | 99 | 4.8 | 6.4 | 0.00 | 0.00 | 0.00 | 89 | 1015.3 |
| 20260906111902 | 17 | 87 | 6.4 | 8.0 | 0.00 | 0.00 | 0.00 | 89 | 1015.4 |
| 20260906111401 | 17 | 117 | 4.8 | 8.0 | 0.00 | 0.00 | 0.00 | 88 | 1015.2 |
| 20260906110856 | 17 | 117 | 4.8 | 9.7 | 0.00 | 0.00 | 0.00 | 88 | 1014.8 |
| 20260906110352 | 17 | 114 | 12.9 | 14.5 | 0.00 | 0.00 | 0.00 | 87 | 1014.8 |
| 20260906105851 | 17 | 126 | 11.3 | 16.1 | 0.00 | 0.00 | 0.00 | 86 | 1014.7 |
| 20260906105347 | 17 | 122 | 8.0 | 12.9 | 0.00 | 0.00 | 0.00 | 85 | 1014.7 |
| 20260906104843 | 17 | 115 | 9.7 | 16.1 | 0.00 | 0.00 | 0.00 | 84 | 1014.6 |
| 20260906104341 | 17 | 106 | 16.1 | 16.1 | 0.00 | 0.00 | 0.00 | 83 | 1014.5 |
| 20260906103840 | 18 | 105 | 11.3 | 14.5 | 0.00 | 0.00 | 0.00 | 82 | 1014.6 |
| 20260906103338 | 18 | 94 | 9.7 | 14.5 | 0.00 | 0.00 | 0.00 | 81 | 1014.3 |
| 20260906102834 | 18 | 96 | 14.5 | 19.3 | 0.00 | 0.00 | 0.00 | 80 | 1014.2 |
| 20260906102333 | 18 | 120 | 16.1 | 17.7 | 0.00 | 0.00 | 0.00 | 79 | 1014.6 |
| 20260906101828 | 18 | 119 | 11.3 | 16.1 | 0.00 | 0.00 | 0.00 | 79 | 1014.7 |
| 20260906101323 | 18 | 115 | 9.7 | 14.5 | 0.00 | 0.00 | 0.00 | 79 | 1014.3 |
| 20260906100819 | 18 | 100 | 9.7 | 17.7 | 0.00 | 0.00 | 0.00 | 79 | 1014.2 |
| 20260906100318 | 18 | 107 | 9.7 | 11.3 | 0.00 | 0.00 | 0.00 | 79 | 1014.7 |
| 20260906095813 | 18 | 88 | 6.4 | 8.0 | 0.00 | 0.00 | 0.00 | 79 | 1014.3 |
| 20260906095309 | 18 | 103 | 8.0 | 12.9 | 0.00 | 0.00 | 0.00 | 78 | 1014.4 |
| 20260906094808 | 18 | 112 | 9.7 | 16.1 | 0.00 | 0.00 | 0.00 | 77 | 1014.4 |
| 20260906094303 | 18 | 81 | 8.0 | 14.5 | 0.00 | 0.00 | 0.00 | 77 | 1014.2 |
| 20260906093800 | 18 | 97 | 11.3 | 16.1 | 0.00 | 0.00 | 0.00 | 79 | 1013.7 |
| 20260906093255 | 18 | 86 | 11.3 | 14.5 | 0.00 | 0.00 | 0.00 | 81 | 1013.9 |
| 20260906092750 | 18 | 99 | 11.3 | 19.3 | 0.00 | 0.00 | 0.00 | 82 | 1014.2 |
| 20260906092244 | 18 | 108 | 17.7 | 20.9 | 0.00 | 0.00 | 0.00 | 81 | 1014.0 |
| 20260906091740 | 18 | 118 | 14.5 | 20.9 | 0.00 | 0.00 | 0.00 | 82 | 1014.2 |
| 20260906091236 | 18 | 108 | 16.1 | 17.7 | 0.00 | 0.00 | 0.00 | 82 | 1014.0 |
| 20260906090732 | 17 | 126 | 17.7 | 19.3 | 0.00 | 0.00 | 0.00 | 83 | 1014.4 |
| 20260906090231 | 18 | 125 | 14.5 | 17.7 | 0.00 | 0.00 | 0.00 | 82 | 1014.3 |
| 20260906085730 | 17 | 115 | 11.3 | 12.9 | 0.00 | 0.00 | 0.00 | 82 | 1014.2 |
| 20260906085230 | 18 | 102 | 11.3 | 16.1 | 0.00 | 0.00 | 0.00 | 81 | 1013.8 |
| 20260906084724 | 18 | 108 | 11.3 | 17.7 | 0.00 | 0.00 | 0.00 | 81 | 1014.2 |
| 20260906084218 | 18 | 96 | 16.1 | 22.5 | 0.00 | 0.00 | 0.00 | 79 | 1014.0 |
| 20260906083714 | 18 | 93 | 11.3 | 17.7 | 0.00 | 0.00 | 0.00 | 79 | 1013.7 |
| 20260906083209 | 18 | 88 | 19.3 | 20.9 | 0.00 | 0.00 | 0.00 | 78 | 1013.9 |
| 20260906082704 | 18 | 96 | 17.7 | 19.3 | 0.00 | 0.00 | 0.00 | 78 | 1014.0 |
| 20260906082154 | 18 | 102 | 11.3 | 16.1 | 0.00 | 0.00 | 0.00 | 79 | 1013.9 |
| 20260906081649 | 18 | 98 | 12.9 | 22.5 | 0.00 | 0.00 | 0.00 | 78 | 1013.7 |
| 20260906081144 | 18 | 91 | 16.1 | 19.3 | 0.00 | 0.00 | 0.00 | 78 | 1014.0 |
| 20260906080641 | 18 | 108 | 17.7 | 20.9 | 0.00 | 0.00 | 0.00 | 79 | 1014.2 |
| 20260906080137 | 17 | 107 | 17.7 | 22.5 | 0.00 | 0.00 | 0.00 | 82 | 1014.3 |
| 20260906075636 | 17 | 106 | 14.5 | 14.5 | 0.00 | 0.00 | 0.00 | 86 | 1014.4 |
| 20260906075131 | 17 | 104 | 12.9 | 14.5 | 0.00 | 0.00 | 0.00 | 88 | 1014.4 |
| 20260906074626 | 17 | 104 | 11.3 | 12.9 | 0.00 | 0.00 | 0.00 | 89 | 1014.4 |
| 20260906074125 | 17 | 110 | 11.3 | 14.5 | 0.00 | 0.00 | 0.00 | 89 | 1014.3 |
| 20260906073620 | 17 | 104 | 12.9 | 17.7 | 0.00 | 0.00 | 0.00 | 89 | 1014.2 |
| 20260906073116 | 17 | 108 | 11.3 | 16.1 | 0.00 | 0.00 | 0.00 | 89 | 1014.4 |
| 20260906072610 | 17 | 95 | 12.9 | 16.1 | 0.00 | 0.00 | 0.00 | 88 | 1014.6 |
| 20260906072106 | 17 | 91 | 14.5 | 19.3 | 0.00 | 0.00 | 0.00 | 88 | 1014.4 |
| 20260906071603 | 17 | 85 | 19.3 | 22.5 | 0.00 | 0.00 | 0.00 | 86 | 1014.5 |
| 20260906071057 | 17 | 83 | 11.3 | 19.3 | 0.00 | 0.00 | 0.00 | 87 | 1014.2 |
| 20260906070554 | 17 | 88 | 16.1 | 22.5 | 0.00 | 0.00 | 0.00 | 87 | 1014.6 |
| 20260906070049 | 17 | 102 | 19.3 | 22.5 | 0.00 | 0.00 | 0.00 | 87 | 1014.7 |
| 20260906065548 | 17 | 106 | 19.3 | 24.1 | 0.00 | 0.00 | 0.00 | 87 | 1015.0 |
| 20260906065044 | 17 | 84 | 17.7 | 32.2 | 0.00 | 0.00 | 0.00 | 86 | 1014.8 |
| 20260906064540 | 17 | 84 | 24.1 | 32.2 | 0.00 | 0.00 | 0.00 | 84 | 1014.5 |
| 20260906064035 | 17 | 68 | 20.9 | 35.4 | 0.00 | 0.00 | 0.00 | 85 | 1014.5 |
| 20260906063530 | 17 | 94 | 20.9 | 35.4 | 0.00 | 0.00 | 0.00 | 85 | 1014.7 |
| 20260906063026 | 17 | 87 | 19.3 | 27.4 | 0.00 | 0.00 | 0.00 | 88 | 1015.3 |
| 20260906062521 | 17 | 104 | 19.3 | 27.4 | 0.00 | 0.00 | 0.00 | 90 | 1015.6 |
| 20260906062015 | 17 | 99 | 24.1 | 33.8 | 0.00 | 0.00 | 0.00 | 91 | 1015.9 |
| 20260906061511 | 17 | 95 | 17.7 | 30.6 | 0.00 | 0.00 | 0.00 | 91 | 1015.7 |
| 20260906061005 | 17 | 108 | 22.5 | 32.2 | 0.00 | 0.00 | 0.00 | 91 | 1015.5 |
| 20260906060502 | 17 | 105 | 25.7 | 32.2 | 0.05 | 0.00 | 0.00 | 91 | 1016.0 |
| 20260906055958 | 17 | 101 | 30.6 | 32.2 | 0.13 | 0.86 | 0.86 | 92 | 1015.6 |
| 20260906055454 | 17 | 87 | 25.7 | 35.4 | 0.05 | 0.84 | 0.84 | 92 | 1016.0 |
| 20260906054949 | 17 | 98 | 24.1 | 38.6 | 0.00 | 0.84 | 0.84 | 91 | 1016.9 |
| 20260906054449 | 17 | 86 | 22.5 | 33.8 | 0.00 | 0.84 | 0.84 | 91 | 1016.3 |
| 20260906053944 | 17 | 99 | 24.1 | 27.4 | 0.05 | 0.84 | 0.84 | 91 | 1016.1 |
| 20260906053441 | 17 | 119 | 22.5 | 33.8 | 0.05 | 0.84 | 0.84 | 89 | 1016.4 |
| 20260906052936 | 17 | 111 | 32.2 | 38.6 | 0.00 | 0.81 | 0.81 | 88 | 1016.3 |
| 20260906052432 | 17 | 114 | 24.1 | 35.4 | 0.00 | 0.81 | 0.81 | 86 | 1016.6 |
| 20260906051929 | 17 | 98 | 27.4 | 32.2 | 0.00 | 0.81 | 0.81 | 90 | 1015.7 |
| 20260906051424 | 17 | 116 | 22.5 | 41.8 | 0.00 | 0.81 | 0.81 | 94 | 1015.9 |
| 20260906050919 | 17 | 105 | 20.9 | 27.4 | 0.00 | 0.81 | 0.81 | 97 | 1015.7 |
| 20260906050414 | 17 | 106 | 32.2 | 38.6 | 0.00 | 0.81 | 0.81 | 98 | 1015.3 |
| 20260906045913 | 18 | 121 | 30.6 | 32.2 | 0.00 | 0.81 | 0.81 | 98 | 1015.4 |
| 20260906045412 | 18 | 118 | 29.0 | 40.2 | 0.00 | 0.81 | 0.81 | 98 | 1015.3 |
| 20260906044908 | 17 | 124 | 30.6 | 40.2 | 0.00 | 0.81 | 0.81 | 98 | 1015.3 |
| 20260906044403 | 17 | 127 | 27.4 | 38.6 | 0.00 | 0.81 | 0.81 | 98 | 1014.5 |
| 20260906043859 | 17 | 101 | 20.9 | 29.0 | 0.05 | 0.81 | 0.81 | 98 | 1014.2 |
| 20260906043354 | 17 | 106 | 19.3 | 30.6 | 0.13 | 0.81 | 0.81 | 98 | 1014.6 |
| 20260906042849 | 17 | 126 | 17.7 | 30.6 | 0.05 | 0.81 | 0.81 | 98 | 1015.0 |
| 20260906042348 | 18 | 110 | 16.1 | 17.7 | 0.05 | 0.79 | 0.79 | 98 | 1015.5 |
| 20260906041844 | 18 | 70 | 12.9 | 19.3 | 0.23 | 0.79 | 0.79 | 98 | 1016.1 |
| 20260906041340 | 17 | 18 | 14.5 | 16.1 | 0.66 | 0.76 | 0.76 | 98 | 1015.9 |
| 20260906040839 | 18 | 4 | 11.3 | 16.1 | 1.27 | 0.74 | 0.74 | 98 | 1016.1 |
| 20260906040335 | 18 | 314 | 6.4 | 11.3 | 1.55 | 0.66 | 0.66 | 98 | 1017.0 |
| 20260906035830 | 18 | 206 | 11.3 | 16.1 | 1.32 | 0.51 | 0.51 | 97 | 1017.1 |
| 20260906035325 | 18 | 209 | 16.1 | 35.4 | 1.14 | 0.36 | 0.36 | 97 | 1017.2 |
| 20260906034821 | 18 | 229 | 24.1 | 33.8 | 0.84 | 0.25 | 0.25 | 97 | 1016.9 |
| 20260906034315 | 18 | 238 | 38.6 | 45.1 | 0.71 | 0.15 | 0.15 | 96 | 1016.9 |
| 20260906033811 | 18 | 255 | 17.7 | 37.0 | 0.48 | 0.10 | 0.10 | 95 | 1016.8 |
| 20260906033310 | 19 | 226 | 27.4 | 48.3 | 0.13 | 0.03 | 0.03 | 89 | 1016.1 |
| 20260906032807 | 20 | 257 | 30.6 | 35.4 | 0.00 | 0.00 | 0.00 | 73 | 1015.4 |
| 20260906032305 | 22 | 245 | 12.9 | 19.3 | 0.00 | 0.00 | 0.00 | 68 | 1015.2 |
| 20260906031757 | 22 | 30 | 16.1 | 25.7 | 0.00 | 0.00 | 0.00 | 68 | 1014.3 |
| 20260906031253 | 21 | 19 | 22.5 | 29.0 | 0.00 | 0.00 | 0.00 | 69 | 1013.9 |
| 20260906030752 | 21 | 32 | 27.4 | 37.0 | 0.00 | 0.00 | 0.00 | 73 | 1013.5 |
| 20260906030248 | 20 | 29 | 22.5 | 33.8 | 0.00 | 0.00 | 0.00 | 77 | 1013.6 |
| 20260906025747 | 20 | 18 | 29.0 | 37.0 | 0.00 | 0.00 | 0.00 | 76 | 1013.9 |
| 20260906025241 | 21 | 4 | 25.7 | 37.0 | 0.00 | 0.00 | 0.00 | 68 | 1014.3 |
| 20260906024741 | 21 | 3 | 25.7 | 38.6 | 0.00 | 0.00 | 0.00 | 65 | 1013.6 |
| 20260906024239 | 21 | 0 | 19.3 | 33.8 | 0.00 | 0.00 | 0.00 | 67 | 1013.7 |
| 20260906023735 | 21 | 0 | 19.3 | 30.6 | 0.00 | 0.00 | 0.00 | 69 | 1013.6 |
| 20260906023231 | 21 | 7 | 14.5 | 29.0 | 0.00 | 0.00 | 0.00 | 76 | 1013.5 |
| 20260906022726 | 20 | 0 | 19.3 | 33.8 | 0.00 | 0.00 | 0.00 | 78 | 1013.4 |
| 20260906022221 | 20 | 357 | 35.4 | 43.5 | 0.00 | 0.00 | 0.00 | 80 | 1013.5 |
| 20260906021717 | 20 | 0 | 29.0 | 41.8 | 0.00 | 0.00 | 0.00 | 78 | 1013.3 |
| 20260906021215 | 22 | 6 | 20.9 | 27.4 | 0.00 | 0.00 | 0.00 | 67 | 1013.1 |
| 20260906020705 | 24 | 5 | 9.7 | 19.3 | 0.00 | 0.00 | 0.00 | 55 | 1013.1 |
| 20260906020200 | 26 | 36 | 8.0 | 14.5 | 0.00 | 0.00 | 0.00 | 49 | 1012.9 |
| 20260906015654 | 27 | 115 | 12.9 | 24.1 | 0.00 | 0.00 | 0.00 | 49 | 1012.7 |
| 20260906015153 | 27 | 101 | 14.5 | 17.7 | 0.00 | 0.00 | 0.00 | 47 | 1012.4 |
| 20260906014653 | 27 | 109 | 19.3 | 37.0 | 0.00 | 0.00 | 0.00 | 47 | 1012.2 |
| 20260906014149 | 26 | 59 | 24.1 | 33.8 | 0.00 | 0.00 | 0.00 | 49 | 1012.0 |
| 20260906013645 | 23 | 41 | 17.7 | 22.5 | 0.00 | 0.00 | 0.00 | 61 | 1012.2 |
| 20260906013140 | 25 | 35 | 22.5 | 35.4 | 0.00 | 0.00 | 0.00 | 55 | 1012.4 |
| 20260906012639 | 25 | 20 | 11.3 | 11.3 | 0.00 | 0.00 | 0.00 | 46 | 1012.0 |
| 20260906012134 | 25 | 116 | 8.0 | 12.9 | 0.00 | 0.00 | 0.00 | 45 | 1011.6 |
| 20260906011630 | 25 | 120 | 9.7 | 17.7 | 0.00 | 0.00 | 0.00 | 46 | 1010.9 |
| 20260906011124 | 25 | 133 | 16.1 | 30.6 | 0.00 | 0.00 | 0.00 | 46 | 1010.9 |
| 20260906010620 | 26 | 133 | 27.4 | 32.2 | 0.00 | 0.00 | 0.00 | 46 | 1010.8 |
| 20260906010116 | 25 | 137 | 29.0 | 33.8 | 0.00 | 0.00 | 0.00 | 47 | 1010.7 |
| 20260906005616 | 25 | 146 | 27.4 | 38.6 | 0.00 | 0.00 | 0.00 | 46 | 1010.5 |
| 20260906005115 | 26 | 145 | 25.7 | 35.4 | 0.00 | 0.00 | 0.00 | 46 | 1010.8 |
| 20260906004614 | 26 | 147 | 17.7 | 41.8 | 0.00 | 0.00 | 0.00 | 45 | 1010.7 |
| 20260906004109 | 26 | 140 | 22.5 | 41.8 | 0.00 | 0.00 | 0.00 | 46 | 1010.4 |
| 20260906003604 | 25 | 161 | 29.0 | 35.4 | 0.00 | 0.00 | 0.00 | 47 | 1010.9 |
| 20260906003100 | 25 | 152 | 22.5 | 33.8 | 0.00 | 0.00 | 0.00 | 47 | 1011.0 |
| 20260906002555 | 25 | 147 | 33.8 | 41.8 | 0.00 | 0.00 | 0.00 | 47 | 1011.7 |
| 20260906002050 | 24 | 139 | 30.6 | 38.6 | 0.00 | 0.00 | 0.00 | 49 | 1011.6 |
| 20260906001545 | 25 | 150 | 30.6 | 62.8 | 0.00 | 0.00 | 0.00 | 49 | 1011.9 |
| 20260906001044 | 26 | 160 | 17.7 | 35.4 | 0.00 | 0.00 | 0.00 | 48 | 1011.4 |
| 20260906000541 | 26 | 152 | 29.0 | 41.8 | 0.00 | 0.00 | 0.00 | 48 | 1011.2 |
| 20260906000036 | 26 | 145 | 37.0 | 59.5 | 0.00 | 0.00 | 0.00 | 50 | 1011.6 |
| 20260905235530 | 29 | 142 | 33.8 | 38.6 | 0.00 | 0.00 | 0.00 | 47 | 1011.1 |
| 20260905235025 | 28 | 155 | 40.2 | 43.5 | 0.00 | 0.00 | 0.00 | 48 | 1010.7 |
| 20260905234520 | 30 | 143 | 29.0 | 51.5 | 0.00 | 0.00 | 0.00 | 49 | 1010.4 |
| 20260905234015 | 33 | 117 | 19.3 | 32.2 | 0.00 | 0.00 | 0.00 | 37 | 1009.9 |
| 20260905233510 | 33 | 135 | 22.5 | 38.6 | 0.00 | 0.00 | 0.00 | 37 | 1009.4 |
| 20260905233009 | 33 | 131 | 17.7 | 33.8 | 0.00 | 0.00 | 0.00 | 38 | 1009.4 |
| 20260905232505 | 33 | 138 | 29.0 | 30.6 | 0.00 | 0.00 | 0.00 | 38 | 1009.4 |
| 20260905232001 | 33 | 128 | 19.3 | 29.0 | 0.00 | 0.00 | 0.00 | 38 | 1009.5 |
| 20260905231455 | 33 | 124 | 11.3 | 25.7 | 0.00 | 0.00 | 0.00 | 39 | 1009.5 |
| 20260905230952 | 33 | 130 | 20.9 | 30.6 | 0.00 | 0.00 | 0.00 | 39 | 1009.3 |
| 20260905230450 | 33 | 138 | 20.9 | 30.6 | 0.00 | 0.00 | 0.00 | 37 | 1009.6 |
| 20260905225948 | 33 | 146 | 19.3 | 29.0 | 0.00 | 0.00 | 0.00 | 36 | 1010.0 |
| 20260905225444 | 34 | 137 | 17.7 | 29.0 | 0.00 | 0.00 | 0.00 | 36 | 1009.6 |
| 20260905224938 | 34 | 142 | 24.1 | 33.8 | 0.00 | 0.00 | 0.00 | 35 | 1009.4 |
| 20260905224435 | 34 | 142 | 19.3 | 30.6 | 0.00 | 0.00 | 0.00 | 36 | 1009.5 |
| 20260905223933 | 33 | 143 | 29.0 | 38.6 | 0.00 | 0.00 | 0.00 | 36 | 1009.5 |
| 20260905223432 | 35 | 140 | 19.3 | 33.8 | 0.00 | 0.00 | 0.00 | 34 | 1009.4 |
| 20260905222927 | 35 | 158 | 14.5 | 27.4 | 0.00 | 0.00 | 0.00 | 33 | 1009.3 |
| 20260905222426 | 35 | 155 | 9.7 | 22.5 | 0.00 | 0.00 | 0.00 | 33 | 1009.7 |
| 20260905221922 | 35 | 160 | 11.3 | 27.4 | 0.00 | 0.00 | 0.00 | 34 | 1009.4 |
| 20260905221419 | 35 | 146 | 20.9 | 27.4 | 0.00 | 0.00 | 0.00 | 34 | 1009.5 |
| 20260905220915 | 35 | 187 | 16.1 | 22.5 | 0.00 | 0.00 | 0.00 | 32 | 1009.5 |
| 20260905220410 | 35 | 153 | 16.1 | 22.5 | 0.00 | 0.00 | 0.00 | 34 | 1009.6 |
| 20260905215909 | 35 | 171 | 19.3 | 24.1 | 0.00 | 0.00 | 0.00 | 33 | 1009.7 |
| 20260905215405 | 35 | 162 | 20.9 | 29.0 | 0.00 | 0.00 | 0.00 | 34 | 1009.7 |
| 20260905214901 | 35 | 154 | 11.3 | 27.4 | 0.00 | 0.00 | 0.00 | 35 | 1009.6 |
| 20260905214356 | 35 | 192 | 11.3 | 14.5 | 0.00 | 0.00 | 0.00 | 33 | 1009.7 |
| 20260905213851 | 35 | 128 | 19.3 | 22.5 | 0.00 | 0.00 | 0.00 | 33 | 1010.0 |
| 20260905213348 | 35 | 155 | 17.7 | 30.6 | 0.00 | 0.00 | 0.00 | 34 | 1009.9 |
| 20260905212847 | 35 | 161 | 14.5 | 27.4 | 0.00 | 0.00 | 0.00 | 34 | 1010.5 |
| 20260905212342 | 35 | 139 | 19.3 | 33.8 | 0.00 | 0.00 | 0.00 | 34 | 1010.3 |
| 20260905211842 | 35 | 147 | 16.1 | 32.2 | 0.00 | 0.00 | 0.00 | 34 | 1010.5 |
| 20260905211338 | 35 | 133 | 33.8 | 38.6 | 0.00 | 0.00 | 0.00 | 34 | 1010.3 |
| 20260905210834 | 35 | 155 | 9.7 | 32.2 | 0.00 | 0.00 | 0.00 | 35 | 1010.3 |